Regional Weather Roundup
Issued by NWS Jackson, KY

Home | Current Version | Previous Version | Text Only | Print | Product List | Glossary Off
Versions: 1 2 3 4 5 6 7 8 9 10 11 12 13 14 15 16 17 18 19 20 21 22 23 24 25 26 27 28 29 30 31 32 33 34 35 36 37 38 39 40 41 42 43 44 45 46 47 48 49 50

000
ASUS43 KJKL 232110
RWRJKL

EAST KENTUCKY HOURLY WEATHER ROUNDUP
NATIONAL WEATHER SERVICE JACKSON KY
500 PM EDT FRI JUN 23 2017

NOTE: "FAIR" INDICATES FEW OR NO CLOUDS BELOW 12,000 FEET WITH
NO SIGNIFICANT WEATHER AND/OR OBSTRUCTIONS TO VISIBILITY.

* THESE REPORTS ARE NOT UNDER NWS QUALITY CONTROL AND MAY NOT
  REPORT WEATHER SUCH AS PRECIPITATION AND FOG.

KYZ079-080-083-085-087-088-110-112-115-119-120-232200
...EASTERN KENTUCKY...

CITY           SKY/WX    TMP DP  RH WIND       PRES   REMARKS
JACKSON        PTSUNNY   81  72  74 VRB3      29.77F
LONDON         CLOUDY    77  71  82 S6        29.77F
SOMERSET*      RAIN      73  72  94 S6        29.74F
MONTICELLO*    RAIN      76  71  85 VRB7      29.74F
WILLIAMSBURG*  MOCLDY    77  73  88 S9        29.76F
MIDDLESBORO*   CLOUDY    85  68  55 S7G17     29.80F
HARLAN APT*    CLOUDY    79  64  61 SE3       29.82F
PIKE CO APT*   CLOUDY    80  70  71 S5        29.80F
BIG SANDY APT* CLOUDY    81  71  73 SW5       29.79F
MOREHEAD APT*  CLOUDY    79  68  69 S15       29.76F HAZE
$$

KYZ035-036-041-042-044-050-067-078-099-232200
...CENTRAL KENTUCKY...

CITY           SKY/WX    TMP DP  RH WIND       PRES   REMARKS
MT STERLING*   RAIN      75  70  83 SW7       29.75F
FLEMING/MASON* CLOUDY    80  70  73 SW15G25   29.72F
DANVILLE*      RAIN      73  72  94 SW8       29.73F
LEXINGTON      RAIN      75  71  87 S10       29.72F FOG
FRANKFORT      LGT RAIN  75  71  87 SW13      29.70R FOG
LOUISVILLE     RAIN      73  71  93 SW5       29.68F FOG
LEBANON*       HVY RAIN  73  73 100 SE3       29.69F VSB 1/4
GLASGOW*       RAIN      76  76 100 S12G21    29.64F
BOWLING GREEN  RAIN      77  76  96 S13G18    29.62F FOG
$$

KYZ091>093-OHZ055-061-077-WVZ005-015-034-035-042-232200
...SOUTHERN OHIO/WEST VIRGINIA...

CITY           SKY/WX    TMP DP  RH WIND       PRES   REMARKS
COVINGTON      TSTM      69  68  96 S3        29.71S VSB 1
COLUMBUS       LGT RAIN  71  70  96 SW8       29.69F
DAYTON         LGT RAIN  68  67  96 SW8       29.73S
WILMINGTON     HVY RAIN  67  67 100 S6        29.72F FOG
HUNTINGTON     LGT RAIN  79  71  76 SW12G21   29.74F
CHARLESTON     PTSUNNY   83  68  60 SW18G35   29.75F
PINEVILLE*     MOSUNNY   83  67  58 MISG      29.89F
BECKLEY        CLOUDY    78  64  61 SW13G28   29.89F
BLUEFIELD      MOSUNNY   79  61  53 SW16G25   29.93F
LOGAN CO APT*  CLOUDY    79  70  73 CALM      29.81F
$$

VAZ002-007-008-TNZ017-027-036-066-071-232200
...SOUTHWEST VIRGINIA/EAST TENNESSEE...

CITY           SKY/WX    TMP DP  RH WIND       PRES   REMARKS
WISE*          CLOUDY    81  63  54 S14G21    29.91S
JONESVILLE*      N/A     84  64  51 SW10G24   29.84F
ABINGDON*      MOSUNNY   85  62  45 W13G22    29.88F
BRISTOL        MOSUNNY   88  62  41 SW16      29.84F
MORRISTOWN*    MOCLDY    88  63  42 SW13G18   29.81F
SEVIERVILLE*   CLEAR     91  59  33 SW17      29.79F HX  90
KNOXVILLE      PTSUNNY   88  65  46 S25G35    29.79F HX  90
LAFOLLETTE*    MOCLDY    82  70  65 SW14G22   29.81F
OAK RIDGE      CLOUDY    87  66  49 S13G22    29.79F
CROSSVILLE     PTSUNNY   77  67  71 S15G24    29.81F
NASHVILLE      LGT RAIN  78  73  84 SW18G25   29.70S
$$

...KEY TO REMARKS...
VSB - VISIBILITY IN MILES
WCI - WIND CHILL INDEX
HX  - HEAT INDEX

$$



USA.gov is the U.S. government's official web portal to all federal, state and local government web resources and services.